• In Schweiz
  • Länderverzeichnis
  • Für 7 Tage
  • Wassertemperatur
  • Satellitenkarten
  • Wetterkarte
  • Widgets
  • user-avatar
    Anmelden

    Stündliche Wetter Hobart

    Heute, 19 September, Mittwoch

    Zeit Temperatur Niederschläge Wind Luftdruck Luftfeuchtigkeit
    00:00 +4°C° 0 mm 3 m/S 739 mmHg 93%
    01:00 +3°C° 0 mm 3 m/S 739 mmHg 93%
    02:00 +3°C° 0 mm 3 m/S 739 mmHg 93%
    03:00 +3°C° 0 mm 3 m/S 739 mmHg 93%
    04:00 +3°C° 0 mm 2 m/S 739 mmHg 96%
    05:00 +3°C° 0 mm 2 m/S 739 mmHg 94%
    06:00 +4°C° 0 mm 2 m/S 739 mmHg 93%
    07:00 +3°C° 0 mm 3 m/S 740 mmHg 91%
    08:00 +5°C° 0 mm 3 m/S 740 mmHg 79%
    09:00 +8°C° 0 mm 3 m/S 740 mmHg 67%
    10:00 +10°C° 0 mm 3 m/S 741 mmHg 60%
    11:00 +10°C° 0.2 mm 4 m/S 741 mmHg 58%
    12:00 +11°C° 0.2 mm 4 m/S 741 mmHg 57%
    13:00 +10°C° 0.2 mm 5 m/S 742 mmHg 55%
    14:00 +10°C° 0.1 mm 5 m/S 742 mmHg 52%
    15:00 +10°C° 0.1 mm 5 m/S 742 mmHg 48%
    16:00 +10°C° 0.1 mm 5 m/S 743 mmHg 45%
    17:00 +8°C° 0 mm 4 m/S 743 mmHg 53%
    18:00 +6°C° 0 mm 4 m/S 744 mmHg 62%
    19:00 +3°C° 0 mm 4 m/S 745 mmHg 70%
    20:00 +3°C° 0 mm 3 m/S 745 mmHg 76%
    21:00 +2°C° 0 mm 3 m/S 746 mmHg 82%
    22:00 +1°C° 0 mm 3 m/S 746 mmHg 88%
    23:00 +1°C° 0 mm 3 m/S 746 mmHg 89%

    Morgen, 20 September, Donnerstag

    Zeit Temperatur Niederschläge Wind Luftdruck Luftfeuchtigkeit
    00:00 +1°C° 0 mm 3 m/S 746 mmHg 91%
    01:00 +1°C° 0 mm 3 m/S 746 mmHg 92%
    02:00 +1°C° 0 mm 3 m/S 746 mmHg 91%
    03:00 +1°C° 0 mm 3 m/S 746 mmHg 90%
    04:00 +2°C° 0 mm 3 m/S 746 mmHg 89%
    05:00 +3°C° 0 mm 3 m/S 746 mmHg 87%
    06:00 +3°C° 0 mm 3 m/S 746 mmHg 85%
    07:00 +4°C° 0 mm 3 m/S 746 mmHg 83%
    08:00 +6°C° 0 mm 4 m/S 747 mmHg 76%
    09:00 +8°C° 0 mm 4 m/S 747 mmHg 68%
    10:00 +11°C° 0 mm 4 m/S 747 mmHg 60%
    11:00 +12°C° 0 mm 4 m/S 747 mmHg 58%
    12:00 +13°C° 0 mm 4 m/S 747 mmHg 57%
    13:00 +14°C° 0 mm 4 m/S 747 mmHg 55%
    14:00 +14°C° 0 mm 4 m/S 747 mmHg 58%
    15:00 +14°C° 0 mm 4 m/S 747 mmHg 61%
    16:00 +13°C° 0 mm 3 m/S 747 mmHg 64%
    17:00 +12°C° 0 mm 3 m/S 747 mmHg 72%
    18:00 +10°C° 0 mm 3 m/S 748 mmHg 80%
    19:00 +9°C° 0 mm 2 m/S 748 mmHg 88%
    20:00 +9°C° 0 mm 2 m/S 749 mmHg 89%
    21:00 +9°C° 0 mm 3 m/S 749 mmHg 90%
    22:00 +8°C° 0 mm 3 m/S 750 mmHg 92%
    23:00 +8°C° 0 mm 3 m/S 750 mmHg 92%

    übermorgen, 21 September, Freitag

    Zeit Temperatur Niederschläge Wind Luftdruck Luftfeuchtigkeit
    00:00 +8°C° 0 mm 3 m/S 750 mmHg 92%
    01:00 +7°C° 0 mm 3 m/S 750 mmHg 93%
    02:00 +7°C° 0 mm 3 m/S 750 mmHg 93%
    03:00 +7°C° 0 mm 3 m/S 750 mmHg 93%
    04:00 +5°C° 0 mm 3 m/S 750 mmHg 92%
    05:00 +7°C° 0 mm 3 m/S 750 mmHg 90%
    06:00 +7°C° 0 mm 3 m/S 751 mmHg 87%
    07:00 +8°C° 0 mm 3 m/S 751 mmHg 85%
    08:00 +9°C° 0 mm 3 m/S 751 mmHg 78%
    09:00 +11°C° 0 mm 3 m/S 751 mmHg 71%
    10:00 +13°C° 0 mm 4 m/S 751 mmHg 64%
    11:00 +14°C° 0 mm 4 m/S 751 mmHg 61%
    12:00 +16°C° 0 mm 3 m/S 751 mmHg 57%
    13:00 +17°C° 0 mm 3 m/S 751 mmHg 53%
    14:00 +17°C° 0 mm 3 m/S 750 mmHg 54%
    15:00 +17°C° 0 mm 3 m/S 750 mmHg 54%
    16:00 +16°C° 0 mm 3 m/S 750 mmHg 55%
    17:00 +13°C° 0 mm 3 m/S 750 mmHg 63%
    18:00 +11°C° 0 mm 3 m/S 750 mmHg 72%
    19:00 +9°C° 0 mm 3 m/S 751 mmHg 80%
    20:00 +9°C° 0 mm 3 m/S 751 mmHg 81%
    21:00 +8°C° 0 mm 3 m/S 751 mmHg 82%
    22:00 +8°C° 0 mm 3 m/S 751 mmHg 84%
    23:00 +8°C° 0 mm 3 m/S 751 mmHg 83%

    22 September, Samstag

    Zeit Temperatur Niederschläge Wind Luftdruck Luftfeuchtigkeit
    00:00 +8°C° 0 mm 3 m/S 751 mmHg 82%
    01:00 +7°C° 0 mm 4 m/S 751 mmHg 81%
    02:00 +7°C° 0 mm 4 m/S 750 mmHg 80%
    03:00 +7°C° 0 mm 4 m/S 750 mmHg 80%
    04:00 +7°C° 0 mm 4 m/S 750 mmHg 79%
    05:00 +8°C° 0 mm 4 m/S 750 mmHg 78%
    06:00 +8°C° 0 mm 4 m/S 750 mmHg 77%
    07:00 +10°C° 0 mm 4 m/S 750 mmHg 76%
    08:00 +10°C° 0 mm 5 m/S 749 mmHg 72%
    09:00 +11°C° 0 mm 6 m/S 749 mmHg 68%
    10:00 +14°C° 0 mm 7 m/S 749 mmHg 64%
    11:00 +12°C° 0.3 mm 7 m/S 748 mmHg 67%
    12:00 +12°C° 0.3 mm 7 m/S 748 mmHg 70%
    13:00 +12°C° 0.3 mm 7 m/S 748 mmHg 73%
    14:00 +11°C° 0.3 mm 6 m/S 748 mmHg 79%
    15:00 +9°C° 0.3 mm 6 m/S 749 mmHg 84%
    16:00 +7°C° 0.3 mm 5 m/S 749 mmHg 89%
    17:00 +6°C° 0.1 mm 5 m/S 750 mmHg 88%
    18:00 +6°C° 0.1 mm 5 m/S 750 mmHg 87%
    19:00 +5°C° 0.1 mm 5 m/S 751 mmHg 86%
    20:00 +3°C° 0 mm 5 m/S 752 mmHg 86%
    21:00 +2°C° 0 mm 5 m/S 752 mmHg 87%
    22:00 +2°C° 0 mm 5 m/S 753 mmHg 87%
    23:00 +2°C° 0 mm 5 m/S 753 mmHg 85%

    23 September, Sonntag

    Zeit Temperatur Niederschläge Wind Luftdruck Luftfeuchtigkeit
    00:00 +1°C° 0 mm 5 m/S 753 mmHg 84%
    01:00 +1°C° 0 mm 5 m/S 753 mmHg 82%
    02:00 +2°C° 0 mm 5 m/S 753 mmHg 81%
    03:00 +2°C° 0 mm 6 m/S 753 mmHg 81%
    04:00 +2°C° 0 mm 6 m/S 753 mmHg 80%
    05:00 +2°C° 0.1 mm 6 m/S 754 mmHg 80%
    06:00 +3°C° 0.1 mm 6 m/S 754 mmHg 79%
    07:00 +3°C° 0.1 mm 6 m/S 755 mmHg 79%
    08:00 +4°C° 0.1 mm 6 m/S 755 mmHg 70%
    09:00 +5°C° 0.1 mm 6 m/S 755 mmHg 61%
    10:00 +6°C° 0.1 mm 7 m/S 756 mmHg 52%
    11:00 +7°C° 0.1 mm 6 m/S 756 mmHg 53%
    12:00 +7°C° 0.1 mm 6 m/S 756 mmHg 55%
    13:00 +7°C° 0.1 mm 6 m/S 756 mmHg 56%
    14:00 +7°C° 0.1 mm 6 m/S 756 mmHg 57%
    15:00 +7°C° 0.1 mm 6 m/S 756 mmHg 58%
    16:00 +7°C° 0.1 mm 5 m/S 756 mmHg 59%
    17:00 +5°C° 0 mm 5 m/S 756 mmHg 66%
    18:00 +4°C° 0 mm 4 m/S 757 mmHg 72%
    19:00 +3°C° 0 mm 4 m/S 757 mmHg 79%
    20:00 +1°C° 0 mm 4 m/S 757 mmHg 84%
    21:00 0°C° 0 mm 4 m/S 757 mmHg 88%
    22:00 +1°C° 0 mm 3 m/S 757 mmHg 92%
    23:00 0°C° 0 mm 3 m/S 757 mmHg 93%

    24 September, Montag

    Zeit Temperatur Niederschläge Wind Luftdruck Luftfeuchtigkeit
    00:00 0°C° 0 mm 3 m/S 757 mmHg 94%
    01:00 0°C° 0 mm 3 m/S 756 mmHg 95%
    02:00 0°C° 0 mm 3 m/S 756 mmHg 95%
    03:00 0°C° 0 mm 3 m/S 756 mmHg 96%
    04:00 0°C° 0 mm 3 m/S 755 mmHg 96%
    05:00 0°C° 0 mm 4 m/S 755 mmHg 92%
    06:00 +1°C° 0 mm 4 m/S 755 mmHg 88%
    07:00 +3°C° 0 mm 4 m/S 755 mmHg 84%
    08:00 +3°C° 0 mm 5 m/S 755 mmHg 77%
    09:00 +6°C° 0 mm 5 m/S 754 mmHg 70%
    10:00 +7°C° 0 mm 6 m/S 754 mmHg 63%
    11:00 +7°C° 0 mm 6 m/S 754 mmHg 62%
    12:00 +8°C° 0 mm 7 m/S 753 mmHg 62%
    13:00 +8°C° 0 mm 7 m/S 753 mmHg 61%
    14:00 +6°C° 0 mm 7 m/S 752 mmHg 63%
    15:00 +6°C° 0 mm 7 m/S 752 mmHg 66%
    16:00 +6°C° 0 mm 7 m/S 751 mmHg 68%
    17:00 +6°C° 0 mm 7 m/S 751 mmHg 71%
    18:00 +5°C° 0 mm 7 m/S 751 mmHg 74%
    19:00 +5°C° 0 mm 7 m/S 751 mmHg 77%
    20:00 +5°C° 0.1 mm 6 m/S 751 mmHg 79%
    21:00 +5°C° 0.1 mm 6 m/S 751 mmHg 82%
    22:00 +5°C° 0.1 mm 6 m/S 751 mmHg 84%
    23:00 +5°C° 0.1 mm 6 m/S 751 mmHg 86%
    Mehr zeigen